Location: Madrid
(40.4000°N, 3.6830°W)
Time: 19:41:17
(UTC+01:00)

ISS - Pass Details

Date: 24 February 2021
Orbit: 417 x 422 km, 51.6° (Epoch: 26 February)

Event Time Altitude Azimuth Distance (km) Brightness Sun altitude
Exits shadow 05:35:37 22° 66° (ENE) 957 -1.3 -27.3°
Drops below altitude 10° 05:37:00 10° 60° (ENE) 1,496 -0.1 -27.1°
Sets 05:39:07 0° 56° (ENE) 2,363 1.1 -26.7°
